Location: Newark
(0.5300°S, 127.4800°E)
Time: 09:05:33
(UTC+00:00)

Vanguard 1 Rocket - All Passes

Search period start: 24 September 2019 00:00
Search period end: 04 October 2019 00:00
Orbit: 651 x 4225 km, 34.3° (Epoch: 24 September)

Date Brightness Start Highest point End Pass type
(mag) Time Alt. Az. Time Alt. Az. Time Alt. Az.
24 Sep - 00:46:59 10° S 00:56:53 20° SSE 01:10:51 10° ESE daylight
24 Sep - 03:10:45 10° SW 03:29:28 58° SE 03:55:05 10° ENE daylight
24 Sep - 05:39:12 10° WSW 06:03:07 68° NW 06:27:09 10° NE daylight
24 Sep - 08:17:31 10° W 08:37:59 29° NNW 08:53:46 10° NNE daylight
24 Sep - 16:10:00 10° NW 16:15:32 42° NNE 16:19:44 10° ESE night (unlit)
24 Sep - 18:37:54 10° WSW 18:40:30 15° SSW 18:43:17 10° S visible
24 Sep - 23:40:22 10° SSE 23:42:13 10° SSE 23:44:13 10° SE daylight
25 Sep - 01:59:35 10° SSW 02:14:37 40° SE 02:37:10 10° E daylight
25 Sep - 04:25:36 10° SW 04:47:15 89° NW 05:13:25 10° NE daylight
25 Sep - 06:58:31 10° W 07:21:52 42° NW 07:42:05 10° NNE daylight
25 Sep - 09:46:28 10° NW 09:58:12 16° NNW 10:07:18 10° NNE visible
25 Sep - 14:58:32 10° NNW 15:04:00 22° NNE 15:07:56 10° ENE night (unlit)
25 Sep - 17:24:52 10° WNW 17:29:25 38° SW 17:33:34 10° SSE night (unlit)
26 Sep - 00:49:22 10° SSW 01:00:16 24° SE 01:16:29 10° E daylight
26 Sep - 03:13:19 10° SW 03:31:53 68° SE 03:58:11 10° ENE daylight
26 Sep - 05:42:27 10° WSW 06:05:40 58° NW 06:29:31 10° NE daylight
26 Sep - 08:22:56 10° WNW 08:41:39 24° NNW 08:56:21 10° NNE daylight
26 Sep - 11:16:59 10° NNW 11:18:52 10° N 11:20:39 10° N visible
26 Sep - 13:46:51 10° NNW 13:51:34 15° NNE 13:55:11 10° NE visible
26 Sep - 16:12:36 10° NW 16:18:41 76° NE 16:23:06 10° ESE night (unlit)
26 Sep - 23:41:02 10° S 23:46:08 13° SSE 23:52:26 10° SE daylight
27 Sep - 02:02:05 10° SSW 02:17:15 48° SE 02:41:02 10° ENE daylight
27 Sep - 04:28:29 10° WSW 04:49:40 77° NW 05:15:54 10° NE daylight
27 Sep - 07:02:52 10° W 07:24:59 35° NNW 07:44:30 10° NNE daylight
27 Sep - 09:52:37 10° NW 10:02:43 14° NNW 10:10:43 10° NNE visible
27 Sep - 12:34:12 10° NNW 12:38:07 12° N 12:41:23 10° NNE visible
27 Sep - 15:00:29 10° NW 15:07:27 35° NNE 15:12:00 10° E night (unlit)
27 Sep - 17:28:42 10° W 17:32:27 22° SW 17:35:54 10° SSE night (unlit)
28 Sep - 00:51:44 10° SSW 01:03:18 30° SE 01:21:29 10° E daylight
28 Sep - 03:16:00 10° SW 03:34:15 80° SE 04:00:59 10° NE daylight
28 Sep - 05:46:03 10° WSW 06:08:27 49° NW 06:31:50 10° NE daylight
28 Sep - 08:28:48 10° WNW 08:45:43 21° NNW 08:59:11 10° NNE daylight
28 Sep - 11:18:25 10° NNW 11:23:28 12° N 11:27:41 10° NNE visible
28 Sep - 13:48:06 10° NNW 13:55:20 22° NNE 14:00:10 10° ENE visible
28 Sep - 16:15:34 10° WNW 16:21:43 61° SW 16:26:07 10° SE night (unlit)
28 Sep - 23:42:46 10° S 23:49:41 16° SE 23:59:08 10° ESE daylight
29 Sep - 02:04:37 10° SW 02:19:44 58° SE 02:44:26 10° ENE daylight
29 Sep - 04:31:37 10° WSW 04:52:15 66° NW 05:18:15 10° NE daylight
29 Sep - 07:07:43 10° W 07:28:31 30° NNW 07:47:01 10° NNE daylight
29 Sep - 09:57:52 10° NW 10:07:24 14° N 10:14:58 10° NNE visible
29 Sep - 12:34:58 10° NNW 12:42:14 17° NNE 12:47:25 10° NE visible
29 Sep - 15:02:48 10° NW 15:10:45 57° NNE 15:15:36 10° ESE night (unlit)
29 Sep - 17:33:31 10° WSW 17:35:30 12° SW 17:37:25 10° S night (unlit)
30 Sep - 00:54:09 10° SSW 01:06:04 37° SE 01:25:52 10° E daylight
30 Sep - 03:18:51 10° SW 03:36:42 87° NW 04:03:32 10° NE daylight
30 Sep - 05:50:02 10° W 06:11:32 41° NNW 06:34:09 10° NNE daylight
30 Sep - 08:34:49 10° NW 08:50:12 19° NNW 09:02:29 10° NNE daylight
30 Sep - 11:20:02 10° NNW 11:27:56 15° N 11:33:51 10° NE visible
30 Sep - 13:49:53 10° NW 13:58:57 33° NNE 14:04:23 10° E visible
30 Sep - 16:18:56 10° WNW 16:24:38 35° SW 16:28:49 10° SSE night (unlit)
30 Sep - 23:44:47 10° S 23:52:54 21° SE 00:04:59 10° E daylight
01 Oct - 02:07:16 10° SW 02:22:09 69° SE 02:47:26 10° ENE daylight
01 Oct - 04:35:02 10° WSW 04:55:02 56° NW 05:20:29 10° NE daylight
01 Oct - 07:13:03 10° WNW 07:32:29 26° NNW 07:49:45 10° NNE daylight
01 Oct - 10:01:55 10° NNW 10:12:10 15° N 10:20:02 10° NNE visible
01 Oct - 12:36:24 10° NNW 12:46:09 23° NNE 12:52:21 10° ENE visible
01 Oct - 15:05:26 10° NW 15:13:51 88° SW 15:18:50 10° SE night (unlit)
02 Oct - 00:56:39 10° SSW 01:08:38 46° SE 01:29:41 10° ENE daylight
02 Oct - 03:21:54 10° WSW 03:39:18 74° NW 04:05:53 10° NE daylight
02 Oct - 05:54:27 10° W 06:14:58 35° NNW 06:36:32 10° NNE daylight
02 Oct - 08:40:31 10° NW 08:54:57 18° N 09:06:26 10° NNE daylight
02 Oct - 11:21:44 10° NNW 11:32:12 19° NNE 11:39:21 10° NE visible
02 Oct - 13:51:58 10° NW 14:02:23 49° NNE 14:08:08 10° ESE visible
02 Oct - 16:22:49 10° W 16:27:30 21° SW 16:31:08 10° S night (unlit)
02 Oct - 23:46:58 10° SSW 23:55:49 27° SE 00:10:04 10° E daylight
03 Oct - 02:10:04 10° SW 02:24:38 82° SE 02:50:08 10° NE daylight
03 Oct - 04:38:44 10° W 04:58:05 47° NNW 05:22:42 10° NE daylight
03 Oct - 07:18:42 10° WNW 07:36:51 22° NNW 07:52:53 10° NNE daylight
03 Oct - 10:04:58 10° NNW 10:16:49 17° N 10:25:27 10° NE visible
03 Oct - 12:38:06 10° NW 12:49:54 32° NNE 12:56:41 10° E visible
03 Oct - 15:08:24 10° WNW 15:16:48 56° SW 15:21:47 10° SE night (unlit)
03 Oct - 22:39:36 10° SSE 22:43:13 12° SE 22:47:35 10° ESE daylight
